Regional Weather Roundup
Issued by NWS

Home | Current Version | Previous Version | Text Only | Print | Product List | Glossary Off
Versions: 1 2 3 4 5 6 7 8 9 10 11 12 13 14 15 16 17 18 19 20 21 22 23 24 25 26 27 28 29 30 31 32 33 34 35 36 37 38 39 40 41 42 43 44 45 46 47 48 49 50

349
ASUS43 KLOT 221012
RWRIL

ILLINOIS REGIONAL WEATHER ROUNDUP
NATIONAL WEATHER SERVICE CHICAGO/ROMEOVILLE IL
400 AM CST WED FEB 22 2017

NOTE: "FAIR" INDICATES FEW OR NO CLOUDS BELOW 12,000 FEET WITH NO
SIGNIFICANT WEATHER AND/OR OBSTRUCTIONS TO VISIBILITY.

* THESE STATIONS ARE NOT UNDER NWS QUALITY CONTROL. THEY ALSO MAY NOT
  REPORT WEATHER SUCH AS PRECIPITATION OR FOG.

ILZ001-002-007-009-015-016-024-221100-
NORTHWEST ILLINOIS

CITY           SKY/WX    TMP DP  RH WIND       PRES   REMARKS
MOLINE         PTCLDY    54  52  93 SW8       29.80S FOG
STERLING*      LGT RAIN  48  48 100 VRB3      29.82S VSB 1/4
SAVANNA*       FOG       47  47 100 S5        29.79S VSB<1/4
$$

ILZ003-004-008-010-011-017-018-221100-
NORTH CENTRAL ILLINOIS

CITY           SKY/WX    TMP DP  RH WIND       PRES   REMARKS
ROCKFORD       FOG       50  49  96 S8        29.81F VSB 1/8
FREEPORT*      FOG       49  49  99 SW14      29.80F VSB 1
ROCHELLE*      FOG       47  47 100 S9        29.82S VSB 1/4
DE KALB*       SNOW      48  48  99 S7        29.83S VSB<1/4
PERU*          DRZL/FOG  53  53  99 SW10      29.84S VSB 1/4
$$

ILZ005-006-012>014-019>023-221100-
NORTHEAST ILLINOIS

CITY           SKY/WX    TMP DP  RH WIND       PRES   REMARKS
CHICAGO-OHARE  CLOUDY    56  54  93 SW6       29.81F FOG
CHICAGO-MIDWAY CLOUDY    54  52  93 S7        29.82F FOG
AURORA         FOG       52  51  97 S6        29.83S VSB 1/4
LANSING*       CLOUDY    51  51 100 S7        29.85S FOG
JOLIET*        FOG       53  53 100 SW6       29.84S VSB<1/4
WAUKEGAN       FOG       43  42  97 CALM      29.79S VSB 1/4
DUPAGE AIRPORT FOG       52  50  93 SW8       29.82S VSB 1/4
KANKAKEE*      MOCLDY    49  48  97 S8        29.87R FOG
WHEELING       FOG       52  52 100 S8        29.82S VSB 1/2
MORRIS*        DRZL/FOG  50  49  98 CALM      29.84R VSB 1/4
ROMEOVILLE*    CLOUDY    52  52 100 SW6       29.84R FOG
NORTHERLY ISL    N/A     55  52  89 SW3         N/A
$$

LMZ740>746-221100-
SOUTHERN LAKE MICHIGAN

STATION/POSITION SKY/WX   TEMP    WIND        PRES    VSBY  WAVE
                          AIR SEA DIR/SP/G                  HT/PER
                          (F)     (DEG/KT/KT) (MB)    (MI)  (FT/S)
HARRISON CRIB              56     190/ 13/ 14   N/A
BURNHAM HARBOR             55     200/  6/  7   N/A
CALUMET HARBOR             54     190/  4/  5 1009.7F
BURNS HARBOR               54     190/ 10/ 14 1011.2F
MICHIGAN CITY              53     170/  9/ 10   N/A
$$

ILZ025>027-034>036-040-047-049-050-058-095>099-221100-
WEST-CENTRAL ILLINOIS

CITY           SKY/WX    TMP DP  RH WIND       PRES   REMARKS
QUINCY         FOG       54  54 100 SW8       29.85R VSB 1/4
GALESBURG*     DRZL/FOG  49  49 100 S5        29.83F VSB<1/4
MACOMB*        CLOUDY    52  52 100 SW7       29.86S
JACKSONVILLE*  FOG       51  51 100 SW7       29.85F VSB 1/4
PITTSFIELD*    FOG       55  55 100 SW5       29.86S VSB 1/4
$$

ILZ028>032-037-038-041>044-048-051>054-059>061-221100-
CENTRAL ILLINOIS

CITY           SKY/WX    TMP DP  RH WIND       PRES   REMARKS
PONTIAC        FOG       46  45  98 CALM      29.86S VSB 1/4
BLOOMINGTON    FOG       46  46 100 SW8       29.87R VSB 3/4
DECATUR        FOG       47  47 100 S5        29.87S VSB 1/4
PEORIA         FOG       55  55 100 S9        29.85R VSB 1/4
LACON*         FOG       55  55 100 SW6       29.84R VSB 3/4
LINCOLN*       FOG       49  49 100 CALM      29.86S VSB 1/4
SPRINGFIELD    CLEAR     53  51  93 SW7       29.86S FOG
TAYLORVILLE    FOG       47  47 100 CALM      29.87F VSB<1/4
$$

ILZ033-039-045-046-055>057-062-063-221100-
EAST-CENTRAL ILLINOIS

CITY           SKY/WX    TMP DP  RH WIND       PRES   REMARKS
CHAMPAIGN      FOG       46  44  93 S6        29.88R VSB 1/4
RANTOUL*       FOG       48  48  99 S7        29.87S VSB 1/4
MATTOON        FOG       52  52 100 CALM      29.87S VSB 1/4
PARIS*         FOG       49  49 100 S3        29.89S VSB 1/2
$$

ILZ079-100>102-221100-
SOUTHWEST ILLINOIS

CITY           SKY/WX    TMP DP  RH WIND       PRES   REMARKS
ALTON          FOG       45  45 100 CALM      29.87F VSB<1/4
BELLEVILLE     FOG       46  46 100 CALM      29.87R VSB 1/4
CAHOKIA*       FOG       44  43  96 SE3       29.86F VSB 1/4
SPARTA*        CLOUDY    55  53  95 S5        29.90S
$$

ILZ064>066-069>071-074>076-080>082-084>086-088>090-092>094-221100-
SOUTH-CENTRAL ILLINOIS

CITY           SKY/WX    TMP DP  RH WIND       PRES   REMARKS
CARBONDALE     CLOUDY    52  52 100 SE3       29.89F FOG
CAIRO*         CLOUDY    55  55 100 CALM      29.90R FOG
EFFINGHAM*     FOG       48  48 100 CALM      29.90S VSB<1/4
MARION         CLOUDY    54  54 100 CALM      29.91S FOG
MT. VERNON     CLOUDY    50  49  96 CALM      29.89S FOG
CENTRALIA*     CLOUDY    50  50 100 S5        29.88F FOG
SALEM*         FOG       52  51  95 CALM      29.88F VSB 3/4
METROPOLIS*    CLOUDY    55  54  98 CALM      29.90R FOG
$$

ILZ067-068-072-073-078-083-087-091-221100-
SOUTHEAST ILLINOIS

CITY           SKY/WX    TMP DP  RH WIND       PRES   REMARKS
LAWRENCEVILLE  FOG       52  52 100 S3        29.89S VSB 1/4
FLORA*         FOG       51  50  98 SW3       29.89S VSB 1/4
FAIRFIELD*       N/A     51  51 100 CALM      29.88S FOG
HARRISBURG*    CLOUDY    50  50 100 NW3       29.90S FOG
ROBINSON*      CLOUDY    49  49 100 CALM      29.89S FOG
CARMI*         MOCLDY    49  49 100 CALM      29.90R FOG
$$

ABBREVIATIONS USED IN REMARKS
   TC - TEMPERATURE IN CELSIUS
  WCI - WIND CHILL INDEX
   HX - HEAT INDEX
  VSB - VISIBILITY
$$





USA.gov is the U.S. government's official web portal to all federal, state and local government web resources and services.